Погода в Полтавке

Погода в Полтавке : погода сейчас, прогноз погоды и архив. Всё, что Вы хотите узнать о погоде в Полтавке!

Хотите узнать прогноз погоды в Полтавке? Тогда Вам сюда: Погода в Полтавке

Поиск расширенной информации на нашем сайте:

Другие новости

Новости СМИ2

Главная страница сайта

Новости сайта

03.07.2017

Напоминаем, что на нашем специализированном сайте Метеоцентр.Азия вы можете получить высокодетализированные автоматические прогнозы погоды по пунктам России, СНГ и мира в авиационном формате (включающие направление и скорость ветра, видимость, явления погоды, количество и форму облачности, нижнюю и верхнюю границу облачности).


Погода в Полтавке - сегодня

Время (UTC), дата Ветер
(°,м/с) 
Видим.   Явления Облачность Т
(°С)
Тd
(°С)
f(%) Тe
(°С)
Pmin
(гПа)
dP
(гПа)
Po
(мм)
O2
(г/м3)
Тmin Tmax R s Состояние
почвы
18 21.11.17 180 (Ю) 10 км    3/0 средняя 
[Ac trans]
-10.5 -11.6 92 -10  1032.9  -0.3  762  321           
21 21.11.17 180 (Ю) 10 км    3/0 средняя 
[Ac trans]
-9.1 -10.7 88 -11  1032.7  -0.2  762  319           
00 22.11.17 180 (Ю) 10 км    3/0 средняя 
[Ac trans]
-8.5 -9.6 92 -10  1031.9  -0.8  762  318           
03 22.11.17 170 (Ю) 20000 м    4/0 средняя, верхняя 
[Ac trans|Ci sp]
-7.1 -8.6 89 -10  1031.4  -0.3  761  316  -10.8      равномерный
мокрый или
старый снег
100% 
06 22.11.17 160 (Ю) 20000 м    8/0 верхняя 
[Ci sp]
-5.5 -8 83 -8  1031.3  -0.1  761  314           
09 22.11.17 160 (Ю) 20000 м    9/0 средняя, верхняя 
[Ac trans|Ci sp]
-3.5 -6.2 82 -6  1030.1  -1  761  311           
12 22.11.17 160 (Ю) 20000 м    3/0 средняя, верхняя 
[Ac trans|Ci sp]
-4.3 -6.2 87 -8  1029.6  -0.6  760  312           
15 22.11.17 180 (Ю) 10 км    3/0 средняя 
[Ac trans]
-5.2 -7 87 -8  1028.9  -0.7  760  313    -3       
18 22.11.17 170 (Ю) 10 км    ясно 
-6.1 -7.9 87 -8  1028.8  -0.1  760  314           
21 22.11.17 180 (Ю) 10 км    ясно 
-6.4 -8.6 84 -9  1027.9  -1  759  314           
00 23.11.17 170 (Ю) 10 км    ясно 
-6.8 -9.6 80 -8  1027.7  -0.2  759  314           
03 23.11.17 160 (Ю) 20000 м    8/0 средняя, верхняя 
[Ac und|Ci sp]
-8 -9.7 88 -10  1028.3  0.5  759  316  -8.9      равномерный
мокрый или
старый снег
100% 
06 23.11.17 150 (ЮВ) 20000 м    4/0 средняя, верхняя 
[Ac trans|Ci sp]
-4.6 -8.2 76 -7  1028.7  0.6  759  312           
09 23.11.17 170 (Ю) 20000 м    3/0 верхняя 
[Ci sp]
-2.6 -7.4 70 -4  1028.5  -0.1  759  310           
12 23.11.17 130 (ЮВ) 20000 м    ясно 
-5 -8.6 76 -7  1028.3  -0.3  759  312           
15 23.11.17 160 (Ю) 10 км    ясно 
-5.9 -9.1 78 -8  1028.2  -0.1  759  314    -2.3       
18 23.11.17 160 (Ю) 10 км    3/0 верхняя 
[Ci sp]
-5.1 -7.4 84 -8  1028.1  -0.1  759  312           
21 23.11.17 140 (ЮВ) 10 км    ясно 
-6.6 -8.4 87 -10  1027.8  -0.4  759  314           
00 24.11.17 150 (ЮВ) 10 км    ясно 
-7.7 -9.3 88 -11  1027.4  -0.4  758  315           
03 24.11.17 160 (Ю) 20000 м    3/0 верхняя 
[Ci sp]
-7.8 -9.3 89 -11  1027.1  -0.3  758  315  -8.8      равномерный
мокрый или
старый снег
100% 
06 24.11.17 150 (ЮВ) 20000 м    ясно 
-6.4 -8.9 82 -10  1026.2  -0.9  758  313           
09 24.11.17 150 (ЮВ) 20000 м    ясно 
-4.9 -7.9 79 -7  1024.9  -1.1  757  311           
12 24.11.17 150 (ЮВ) 20000 м    ясно 
-6.5 -8.5 86 -10  1023.5  -1.5  756  313           
15 24.11.17 150 (ЮВ) 10 км    ясно 
-6.6 -8 90 -10  1022.2  -1.3  755  312    -4.8       
18 24.11.17 160 (Ю) 10 км    ясно 
-7 -8.5 89 -11  1020.8  -1.4  754  312           
Время (UTC), дата Ветер
(°,м/с) 
Видим.   Явления Облачность Т
(°С)
Тd
(°С)
f(%) Тe
(°С)
Pmin
(гПа)
dP
(гПа)
Po
(мм)
O2
(г/м3)
Тmin Tmax R s Состояние
почвы

Для получения пояснительной информации подведите курсор к названию столбца.

ПОГОДА в Полтавке - архив

Всё, что Вы хотите узнать о погоде в Полтавке - удобно и подробно!

Выберите нужную дату (начиная с 1 января 2015* года) и нажмите кнопку "Найти".
Будут отображены архивные сводки погоды по пункту Полтавка, начиная с указанной даты.


Отображать данные в формате CSV (для использования в таблицах Excel)


Внимание! Наш архив погоды предназначен исключительно для личного некоммерческого использования в познавательных целях. Если Вам необходимы официальные справки о состоянии погоды (для производственных, юридических, коммерческих и т.п. целей), обращайтесь в органы Росгидромета.

*Примечание: данная дата относится к архиву по метеостанциям СССР (Россия, СНГ, Балтия).
Архив по метеостанциям Зарубежной Европы и Азии (кроме Китая) хранится 10 дней, по другим регионам земного шара (Китай, Африка, Америка, Австралия, Океания) - 1 день.

Полтавка - район местоположения метеостанции


Название, широта, долгота, высота метеостанции:
Полтавка 54.4°ш. 71.8°д. 125 м над ур. моря [Российская Федерация]

Дополнительная информация

В oтличие oт бoльшинства пoгoдных сайтoв мы публикуем пoдрoбную метеoинфoрмацию в детальнoм прoфессиoнальнoм фoрмате.

Характеристики температуры и влажнoсти вoздуха измеряются на высoте 2 м в тени вдали oт зданий и деревьев.
Скoрoсть ветра измеряется на высoте 10 м (на урoвне рoста челoвека скoрoсть ветра ниже в 1.5-2 раза). Если метеoстанция нахoдится в гoрoде или в лесу, тo скoрoсть ветра занижена на 2-4 м/с пo сравнению с oткрытым местoм. Скoрoсть ветра над акватoриями крупных рек и oзёр, а также на вершинах хoлмoв на 2-5 м/с выше, чем в oбычных услoвиях.
Атмoсфернoе давление в разных тoчках местнoсти мoжет значительнo oтличаться oт давления на метеoстанции, в зависимoсти oт услoвий рельефа (при пoдъёме на 10 м давление пoнижается примернo на 1 мм рт.ст.).